Погода в Совхозе Победа

Россия / Калужская область     55°10′14″N   36°45′52″E
темп.,
°C
ветер,
м/с
пор.,
м/с
влажн.,
%
обл.,
%
осадки,
мм/ч
давл.,
гПа
погр.,
м
25 февраля, чт
чт2500:00−11юз3895100 0.1 1027302
03:00−9юз4995100 0.2 1024306
06:00−4юз61595100 0.6 1018556
09:00+2зюз614100100 1.6 1015472
12:00+3зсз514100100 0.2 1014466
15:00+3зсз412100100 0.2 1015365
18:00+3зсз310100100 0.5 1015287
21:00+2зсз39100100 0.8 1015259
26 февраля, пт
пт2600:00+2з41399100 0.4 1015410
03:00+3з412100100 0.9 1014396
06:00+3зюз51199100 0.2 1012374
09:00+2зюз51299100 0.2 1010439
12:00+2зюз51398100 0.1 1007541
15:00+3з51597100 0.6 1006777
18:00+2з5148992 0.1 1005963
21:00+2з6158496 0.1 10051039
27 февраля, сб
сб2700:00+1з6158676 0.0 1004726
03:00+1з5129155 0.0 1004659
06:00+1з51297100 0.1 1002681
09:00+1зсз51197100 0.3 1002720
12:00+1сз61198100 0.1 1003773
15:00−1ссз61190100 0.9 1005876
18:00−4с51186100 0.1 1008722
21:00−6с51187100 0.1 1012788
28 февраля, вс
вс2800:00−7с5988100 0.1 1014713
03:00−7с4986100 0.1 1016630
06:00−9с399091 0.0 1017502
09:00−8с488994 0.1 1019531
12:00−5ссз4784100 0.0 1020645
15:00−3ссз4784100 0.1 1020747
18:00−4ссз3788100 0.1 1021521
21:00−4ссз2795100 0.1 1023394
1 марта, пн
пн100:00−5с2595100 0.1 1025209
03:00−5ссз249297 0.1 1026155
06:00−6сз129284 0.0 102727
09:00−5з239484 0.0 1028130
12:00−2з358886 0.0 1028379
15:000з379285 0.0 1027464
18:000зсз4994100 0.0 1027533
21:000з41192100 0.0 1026587